Location: Cerezo de Arriba
(41.2389°N, 3.5585°W)
Time: 04:27:55
(UTC+00:00)

Cosmos 1726 Rocket - Pass Details

Date: 19 May 2025
Orbit: 554 x 664 km, 82.5° (Epoch: 23 June)

Event Time Altitude Azimuth Distance (km) Brightness Sun altitude
Rises 20:16:23 0° 180° (S) 2,970 6.7 -8.2°
Reaches altitude 10° 20:18:39 10° 178° (S) 2,053 5.9 -8.6°
Maximum altitude 20:23:12 69° 96° (E) 688 3.6 -9.3°
Drops below altitude 10° 20:27:38 10° 13° (NNE) 2,012 6.5 -9.9°
Sets 20:29:51 0° 11° (N) 2,905 7.4 -10.3°
